Terug naar catalogus

STARLINK-4134

ActiefCommunicatieVLEO
NORAD 53254·PAYLOAD·🇺🇸 United States

Gelanceerd Jul 24, 2022 vanaf Cape Canaveral Space Force Station

Loading…

Volgende Passages (komende 24 uur)

TLE

VersSource: CelesTrak SupGP

Epoch: Sep 14, 2026, 21:51 UTC

1 53254C 22086N   26257.91090278  .00042917  00000+0  13802-2 0  2570
2 53254  53.1585  59.8253 0001231  82.4547  56.7809 15.31677690    18

Volg STARLINK-4134 in realtime met AllMySat

Download on the App Store